[[{"header":{"parameterUnit":"m.s-1","parameterCategory":1,"la1":30.2992,"la2":30.254,"lo1":-89.0895,"lo2":-89.0443,"dy":0.0025,"dx":0.0025,"nx":19,"ny":19,"refTime":"2026-03-21T21:00:00:Z","depth":0,"parameterNumber":2,"parameterNumberName":"U-component_of_WINDS"},"data":[0,0,0,1.0888,1.0889,1.0939,1.0939,1.0985,1.0985,0,0,0,0,0,0,0,0,0,0,0,1.086,1.0859,1.0888,1.0889,1.0939,1.0939,1.0985,1.0985,0,0,0,0,0,0,0,0,0,0,0,1.086,1.086,1.0859,1.0889,1.0939,1.0939,1.0985,1.0954,0,0,0,0,0,0,0,0,0,0,1.0909,1.0868,1.086,1.0859,1.0889,1.0939,1.0939,1.0953,1.0956,1.0953,0,1.0945,0,1.0966,1.0987,1.0987,0,0,0,1.09,1.0866,1.0892,1.0859,1.089,1.0939,1.0919,1.0955,1.0958,1.0957,1.0946,1.0949,1.0967,1.0987,1.0987,1.0934,1.0934,0,0,1.0897,1.0861,1.0889,1.0893,1.0882,1.0918,1.0921,1.0957,1.0943,1.0947,1.095,1.0967,1.0987,1.0987,1.0935,1.0934,0,0,0,1.0882,1.0859,1.0885,1.0891,1.0901,1.0919,1.0922,1.0942,1.0953,1.0951,1.0968,1.0987,1.0987,1.0936,1.0935,1.0863,0,0,0,1.0881,1.085,1.0883,1.0862,1.09,1.0921,1.0906,1.0951,1.0956,1.0968,1.0987,1.0988,1.0937,1.0935,1.0866,1.0834,0,0,0,1.0861,1.0848,1.0851,1.086,1.088,1.0922,1.0935,1.0953,1.0966,1.0987,1.0988,1.0937,1.0936,1.087,1.0839,1.081,0,0,0,1.083,1.0785,1.0849,1.0806,1.0879,1.0877,1.0936,1.0936,1.0945,1.0987,1.0937,1.0935,1.0871,1.0843,1.0813,1.0777,1.0759,0,0,1.0754,1.0775,1.0753,1.0811,1.0788,1.0872,1.084,1.0882,1.0918,1.0928,1.0927,1.0865,1.084,1.0811,1.0673,1.0658,0,0,0,1.0717,1.07,1.0702,1.0709,1.0741,1.0766,1.0817,1.0834,1.0845,1.0915,1.0848,1.0834,1.0819,1.0803,1.0791,1.078,1.0926,1.0927,1.0927,1.0555,1.0604,1.0571,1.0626,1.0633,1.0688,1.0699,1.0731,1.0777,1.0761,1.0763,1.0674,1.0654,1.0645,1.0633,1.075,1.075,1.0749,1.0749,1.0447,1.0431,1.0497,1.0487,1.054,1.0535,1.0589,1.0622,1.0626,1.0675,1.0664,1.0712,1.0627,1.062,1.0744,1.0745,1.0746,1.0746,1.0747,1.0345,1.0346,1.0368,1.0386,1.0395,1.0454,1.0455,1.0504,1.055,1.0539,1.0547,1.0548,1.0555,1.054,1.054,1.0539,1.0539,1.0539,1.0539,1.023,1.0257,1.0251,1.0283,1.0296,1.032,1.0379,1.0394,1.0423,1.0459,1.0459,1.0507,1.061,1.0634,1.0534,1.0535,1.0535,1.0536,1.0536,1.0098,1.0137,1.0127,1.0139,1.0184,1.0192,1.0256,1.0283,1.0303,1.0302,1.0356,1.0424,1.0449,1.0459,1.0479,1.0345,1.0345,1.0345,1.0345,1.0011,1.003,1.0032,1.005,1.0074,1.0131,1.0122,1.017,1.0226,1.0242,1.027,1.0302,1.031,1.033,1.0343,1.0363,1.0202,1.0202,1.0201,0.9933,0.9957,0.9937,0.9991,1.0031,1.0065,1.0059,1.008,1.0152,1.0197,1.0256,1.0262,1.0314,1.0329,1.037,1.039,1.0427,0,0]},{"header":{"parameterUnit":"m.s-1","parameterCategory":1,"la1":30.2992,"la2":30.254,"lo1":-89.0895,"lo2":-89.0443,"dy":0.0025,"dx":0.0025,"nx":19,"ny":19,"refTime":"2026-03-21T21:00:00:Z","depth":0,"parameterNumber":3,"parameterNumberName":"V-component_of_WINDS"},"data":[0,0,0,3.8994,3.8995,3.9053,3.9053,3.9112,3.9112,0,0,0,0,0,0,0,0,0,0,0,3.8969,3.8969,3.8994,3.8995,3.9053,3.9053,3.9112,3.9112,0,0,0,0,0,0,0,0,0,0,0,3.8969,3.8969,3.8969,3.8995,3.9053,3.9053,3.9111,3.9073,0,0,0,0,0,0,0,0,0,0,3.9019,3.8989,3.8969,3.8969,3.8995,3.9053,3.9054,3.9071,3.9075,3.9079,0,3.9083,0,3.9099,3.9115,3.9115,0,0,0,3.9,3.8986,3.9009,3.8969,3.8996,3.9053,3.9028,3.9073,3.9078,3.9084,3.9084,3.9086,3.91,3.9115,3.9116,3.913,3.913,0,0,3.8996,3.8975,3.9005,3.9011,3.9004,3.9026,3.903,3.9076,3.9073,3.9084,3.9088,3.91,3.9116,3.9116,3.913,3.913,0,0,0,3.8984,3.8972,3.8994,3.9008,3.902,3.9028,3.9032,3.9071,3.908,3.9089,3.9101,3.9116,3.9117,3.913,3.913,3.9103,0,0,0,3.8982,3.8965,3.8993,3.898,3.9019,3.9047,3.9026,3.9077,3.9083,3.9101,3.9116,3.9117,3.913,3.913,3.9104,3.9093,0,0,0,3.8968,3.8963,3.897,3.8978,3.9003,3.9047,3.9059,3.9079,3.9091,3.9115,3.9117,3.9131,3.913,3.9105,3.9094,3.9091,0,0,0,3.8945,3.8942,3.8969,3.8971,3.9003,3.9031,3.9059,3.908,3.9098,3.9116,3.913,3.913,3.9105,3.9096,3.9092,3.9084,3.9079,0,0,3.893,3.894,3.8943,3.8968,3.8986,3.9023,3.9037,3.9072,3.9092,3.9115,3.9116,3.9103,3.9095,3.9091,3.9058,3.9053,0,0,0,3.8931,3.8932,3.8942,3.896,3.8989,3.9013,3.9049,3.9062,3.9084,3.9101,3.9102,3.9097,3.9096,3.9093,3.9089,3.909,3.9128,3.9128,3.9128,3.8876,3.8906,3.8913,3.895,3.8966,3.9005,3.9021,3.9045,3.9067,3.9067,3.9074,3.905,3.9046,3.9044,3.9043,3.9072,3.9072,3.9072,3.9072,3.8856,3.8864,3.8897,3.8916,3.8946,3.8961,3.8998,3.9014,3.9031,3.9047,3.9047,3.9062,3.9038,3.904,3.907,3.907,3.9071,3.9071,3.9071,3.8824,3.8833,3.8851,3.8882,3.8901,3.8937,3.8953,3.898,3.9004,3.9004,3.9015,3.9015,3.9019,3.9008,3.9008,3.9007,3.9007,3.9007,3.9007,3.8782,3.8805,3.8816,3.8849,3.8865,3.8889,3.8929,3.8944,3.8967,3.8985,3.8985,3.9007,3.9031,3.9036,3.9006,3.9006,3.9006,3.9007,3.9007,3.875,3.8763,3.8781,3.8797,3.8838,3.8856,3.889,3.8919,3.8936,3.8943,3.8966,3.8979,3.899,3.8993,3.8998,3.896,3.896,3.896,3.896,3.8723,3.8732,3.8758,3.8782,3.8809,3.8843,3.8861,3.8892,3.8925,3.8936,3.8946,3.8954,3.8956,3.8966,3.897,3.8975,3.8931,3.8931,3.8931,3.8705,3.8719,3.873,3.8766,3.8801,3.8829,3.8847,3.8871,3.8911,3.8931,3.8946,3.8947,3.8961,3.8964,3.8983,3.8988,3.8997,0,0]}]]